Location: Newark
(45.8833°N, 13.5000°E)
Time: 16:07:41
(UTC+00:00)

X-37B - Visible Passes

Search period start: 26 September 2020 00:00
Search period end: 06 October 2020 00:00
Orbit: 386 x 387 km, 45.0° (Epoch: 18 September)

Date Brightness Start Highest point End Pass type
(mag) Time Alt. Az. Time Alt. Az. Time Alt. Az.
01 Oct 3.3 18:34:00 10° SSW 18:34:08 11° SSW 18:34:08 11° SSW visible
02 Oct 2.8 17:36:52 10° SSE 17:37:59 11° SE 17:38:37 11° SE visible
03 Oct 1.8 18:12:47 10° SW 18:15:15 28° SSE 18:15:15 28° SSE visible
04 Oct 2.4 17:14:53 10° SSW 17:17:11 19° SSE 17:19:29 10° ESE visible
04 Oct 2.6 18:50:18 10° WSW 18:51:46 24° WSW 18:51:46 24° WSW visible
05 Oct 1.2 17:51:53 10° SW 17:54:55 42° SSE 17:55:54 31° ESE visible
